Weather History for PAWG - July, 2014

Change the Weather History Date:

Saturday, July 19, 2014

  Actual Average Record
Temperature  
Mean Temperature 58 °F -  
Max Temperature 62 °F 66 °F 78 °F (1990)
Min Temperature 53 °F 48 °F 41 °F (1976)
Degree Days  
Heating Degree Days 8    
Growing Degree Days 8 (Base 50)    
Moisture  
Dew Point 51 °F    
Average Humidity 80    
Maximum Humidity 88    
Minimum Humidity 68    
Precipitation  
Precipitation 0.01 in - - ()
Sea Level Pressure  
Sea Level Pressure 29.79 in    
Wind  
Wind Speed 4 mph (WNW)    
Max Wind Speed 10 mph    
Max Gust Speed -    
Visibility 9 miles    
Events      
Averages and records for this station are not official NWS values.
T = Trace of Precipitation, MM = Missing Value Source: NWS Daily Summary

Daily Weather History Graph

Daily Weather History Graph

Search for Another Location

Airport or City:

Trip Planner

Search our weather history database for the weather conditions in past years. The results will help you decide how hot, cold, wet, or windy it might be!

Date:

Astronomy

Jul. 19, 2014 Rise Set
Actual Time 4:27 AM AKDT 9:22 PM AKDT
Civil Twilight 3:32 AM AKDT 10:17 PM AKDT
Nautical Twilight 1:45 AM AKDT 12:00 AM AKDT
Astronomical Twilight Sun does not rise Sun does not rise
Moon No Moon Rise 2:41 PM AKDT (7/19)
Length of Visible Light 18h 45m
Length of Day
16h 54m
Last Quarter, 42% of the Moon is Illuminated
Jul 19
Last Quarter
Jul 26
New
Aug 3
First Quarter
Aug 10
Full
Aug 17
Last Quarter

Hourly Weather History & Observations

Time (AKDT) Temp. Dew Point Humidity Pressure Visibility Wind Dir Wind Speed Gust Speed Precip Events Conditions
12:16 AM 53.6 °F 50.0 °F 88% 29.68 in 5.0 mi ENE 3.5 mph - N/A   Overcast
12:36 AM 53.6 °F 50.0 °F 88% 29.68 in 7.0 mi East 3.5 mph - 0.01 in   Mostly Cloudy
12:56 AM 53.6 °F 50.0 °F 88% 29.68 in 10.0 mi East 3.5 mph - 0.01 in   Overcast
1:16 AM 53.6 °F 50.0 °F 88% 29.67 in 10.0 mi ESE 4.6 mph - N/A   Overcast
1:36 AM 55.4 °F 51.8 °F 88% 29.67 in 7.0 mi ESE 4.6 mph - N/A   Overcast
1:56 AM 55.4 °F 50.0 °F 82% 29.67 in 10.0 mi SE 3.5 mph - N/A   Overcast
2:16 AM 55.4 °F 50.0 °F 82% 29.67 in 10.0 mi Calm Calm - N/A   Overcast
2:36 AM 53.6 °F 48.2 °F 82% 29.68 in 10.0 mi NNW 3.5 mph - N/A   Overcast
2:56 AM 53.6 °F 48.2 °F 82% 29.68 in 10.0 mi Calm Calm - N/A   Overcast
3:16 AM 53.6 °F 48.2 °F 82% 29.68 in 10.0 mi Calm Calm - N/A   Overcast
3:36 AM 53.6 °F 48.2 °F 82% 29.68 in 7.0 mi Calm Calm - N/A   Overcast
3:56 AM 53.6 °F 48.2 °F 82% 29.68 in 5.0 mi Calm Calm - N/A   Overcast
4:16 AM 53.6 °F 48.2 °F 82% 29.69 in 6.0 mi Calm Calm - N/A   Overcast
4:36 AM 53.6 °F 48.2 °F 82% 29.69 in 9.0 mi Calm Calm - N/A   Overcast
4:56 AM 53.6 °F 48.2 °F 82% 29.69 in 5.0 mi Calm Calm - N/A   Overcast
5:16 AM 53.6 °F 48.2 °F 82% 29.69 in 10.0 mi Calm Calm - N/A   Overcast
5:36 AM 53.6 °F 50.0 °F 88% 29.70 in 10.0 mi Calm Calm - N/A   Overcast
5:56 AM 53.6 °F 50.0 °F 88% 29.71 in 4.0 mi Calm Calm - N/A   Overcast
6:16 AM 53.6 °F 50.0 °F 88% 29.71 in 4.0 mi West 4.6 mph - N/A   Overcast
6:36 AM 53.6 °F 50.0 °F 88% 29.71 in 4.0 mi WSW 3.5 mph - N/A   Overcast
6:56 AM 53.6 °F 50.0 °F 88% 29.72 in 4.0 mi WSW 3.5 mph - N/A   Overcast
7:16 AM 55.4 °F 48.2 °F 77% 29.73 in 4.0 mi WSW 4.6 mph - N/A   Overcast
7:36 AM 55.4 °F 48.2 °F 77% 29.74 in 4.0 mi WSW 5.8 mph - N/A   Overcast
7:56 AM 55.4 °F 48.2 °F 77% 29.74 in 10.0 mi West 3.5 mph - N/A   Overcast
8:16 AM 55.4 °F 50.0 °F 82% 29.74 in 10.0 mi West 3.5 mph - N/A   Overcast
8:23 AM 55.4 °F 51.8 °F 88% 29.75 in 10.0 mi WSW 6.9 mph - N/A   Mostly Cloudy
8:36 AM 55.4 °F 50.0 °F 82% 29.75 in 10.0 mi WNW 5.8 mph - N/A   Mostly Cloudy
8:56 AM 57.2 °F 51.8 °F 82% 29.76 in 10.0 mi West 8.1 mph - N/A   Mostly Cloudy
9:16 AM 57.2 °F 51.8 °F 82% 29.77 in 10.0 mi WNW 8.1 mph - N/A   Mostly Cloudy
9:36 AM 55.4 °F 50.0 °F 82% 29.77 in 10.0 mi WSW 8.1 mph - N/A   Mostly Cloudy
9:56 AM 55.4 °F 50.0 °F 82% 29.78 in 10.0 mi SW 6.9 mph - N/A   Overcast
10:16 AM 57.2 °F 51.8 °F 82% 29.78 in 10.0 mi West 4.6 mph - N/A   Overcast
10:36 AM 55.4 °F 51.8 °F 88% 29.79 in 10.0 mi NW 5.8 mph - N/A   Overcast
10:56 AM 57.2 °F 51.8 °F 82% 29.80 in 10.0 mi West 5.8 mph - N/A   Mostly Cloudy
11:16 AM 59.0 °F 51.8 °F 77% 29.80 in 10.0 mi NW 6.9 mph - N/A   Mostly Cloudy
11:36 AM 60.8 °F 51.8 °F 72% 29.80 in 10.0 mi WNW 6.9 mph - N/A   Mostly Cloudy
11:56 AM 59.0 °F 51.8 °F 77% 29.81 in 10.0 mi NW 6.9 mph - N/A   Mostly Cloudy
12:16 PM 59.0 °F 51.8 °F 77% 29.82 in 10.0 mi WNW 6.9 mph - N/A   Mostly Cloudy
12:36 PM 60.8 °F 51.8 °F 72% 29.82 in 10.0 mi West 4.6 mph - N/A   Mostly Cloudy
12:56 PM 60.8 °F 51.8 °F 72% 29.82 in 10.0 mi NW 3.5 mph - N/A   Mostly Cloudy
1:16 PM 62.6 °F 51.8 °F 68% 29.83 in 10.0 mi NW 4.6 mph - N/A   Mostly Cloudy
1:36 PM 62.6 °F 53.6 °F 72% 29.83 in 10.0 mi NNW 6.9 mph - N/A   Mostly Cloudy
1:56 PM 62.6 °F 53.6 °F 72% 29.83 in 10.0 mi NW 8.1 mph - N/A   Mostly Cloudy
2:16 PM 62.6 °F 51.8 °F 68% 29.84 in 10.0 mi NW 10.4 mph - N/A   Mostly Cloudy
2:36 PM 62.6 °F 53.6 °F 72% 29.84 in 10.0 mi NW 5.8 mph - N/A   Mostly Cloudy
2:56 PM 62.6 °F 51.8 °F 68% 29.84 in 10.0 mi WNW 8.1 mph - N/A   Mostly Cloudy
3:16 PM 62.6 °F 51.8 °F 68% 29.85 in 10.0 mi WNW 10.4 mph - N/A   Mostly Cloudy
3:36 PM 62.6 °F 51.8 °F 68% 29.85 in 10.0 mi West 8.1 mph - N/A   Mostly Cloudy
3:56 PM 62.6 °F 51.8 °F 68% 29.86 in 10.0 mi NW 6.9 mph - N/A   Mostly Cloudy
4:16 PM 60.8 °F 51.8 °F 72% 29.86 in 10.0 mi NNW 5.8 mph - N/A   Mostly Cloudy
4:36 PM 59.0 °F 51.8 °F 77% 29.86 in 10.0 mi NNW 3.5 mph - N/A   Mostly Cloudy
4:56 PM 60.8 °F 51.8 °F 72% 29.86 in 10.0 mi West 3.5 mph - N/A   Overcast
5:16 PM 60.8 °F 51.8 °F 72% 29.86 in 10.0 mi WNW 4.6 mph - N/A   Overcast
5:36 PM 60.8 °F 51.8 °F 72% 29.86 in 10.0 mi NNW 5.8 mph - N/A   Overcast
5:56 PM 60.8 °F 51.8 °F 72% 29.86 in 10.0 mi NNW 4.6 mph - N/A   Overcast
6:56 PM 59.0 °F 51.8 °F 77% 29.87 in 10.0 mi NNW 4.6 mph - N/A   Overcast
7:16 PM 59.0 °F 51.8 °F 77% 29.87 in 10.0 mi NW 5.8 mph - N/A   Overcast
7:36 PM 57.2 °F 51.8 °F 82% 29.88 in 10.0 mi NW 4.6 mph - N/A   Overcast
7:56 PM 57.2 °F 51.8 °F 82% 29.87 in 10.0 mi NW 3.5 mph - N/A   Overcast
8:16 PM 57.2 °F 50.0 °F 77% 29.88 in 10.0 mi West 5.8 mph - N/A   Overcast
8:36 PM 59.0 °F 51.8 °F 77% 29.88 in 10.0 mi Calm Calm - N/A   Overcast
8:56 PM 57.2 °F 50.0 °F 77% 29.88 in 10.0 mi Calm Calm - N/A   Overcast
9:16 PM 57.2 °F 51.8 °F 82% 29.88 in 10.0 mi SE 4.6 mph - N/A   Overcast
9:36 PM 57.2 °F 51.8 °F 82% 29.89 in 10.0 mi SSE 3.5 mph - N/A   Overcast
9:56 PM 57.2 °F 51.8 °F 82% 29.89 in 10.0 mi SE 4.6 mph - N/A   Overcast
10:16 PM 57.2 °F 51.8 °F 82% 29.89 in 10.0 mi SE 5.8 mph - N/A   Overcast
10:36 PM 57.2 °F 51.8 °F 82% 29.90 in 10.0 mi Calm Calm - N/A   Overcast
10:56 PM 55.4 °F 51.8 °F 88% 29.90 in 10.0 mi Calm Calm - N/A   Overcast
11:16 PM 55.4 °F 51.8 °F 88% 29.90 in 10.0 mi Calm Calm - N/A   Overcast
11:36 PM 55.4 °F 51.8 °F 88% 29.90 in 10.0 mi Calm Calm - N/A   Overcast
11:56 PM 55.4 °F 51.8 °F 88% 29.90 in 10.0 mi Calm Calm - N/A   Overcast